BAW442 EGLL-EHAM

Flight info

Callsign BAW442
Flight time 0h 41m
Altitude 29000
Route BPK Q295 BRAIN M197 REDFA
Aircraft A319/M-SDE3FGHIRWY/LB1

Departure

Time 2026-05-05 19:11
Airport London Heathrow Airport (EGLL)

Arrival

Time 2026-05-05 19:52
Airport Amsterdam Airport Schiphol (EHAM)
Time Latitude Longitude Altitude Speed Heading
2026-05-05 18:36 51.46983 -0.47708 87 ft 0 kts 90°
2026-05-05 18:37 51.46917 -0.47708 86 ft 0 kts 90°
2026-05-05 18:58 51.46917 -0.47717 86 ft 2 kts 90°
2026-05-05 18:58 51.46917 -0.47741 86 ft 2 kts 91°
2026-05-05 18:59 51.46917 -0.47765 86 ft 2 kts 90°
2026-05-05 18:59 51.46917 -0.47789 86 ft 2 kts 90°
2026-05-05 18:59 51.46919 -0.47813 86 ft 2 kts 109°
2026-05-05 18:59 51.46925 -0.47834 86 ft 2 kts 125°
2026-05-05 19:00 51.46935 -0.47852 86 ft 2 kts 143°
2026-05-05 19:00 51.46948 -0.47864 87 ft 2 kts 160°
2026-05-05 19:00 51.46962 -0.47870 87 ft 1 kts 176°
2026-05-05 19:00 51.46968 -0.47870 87 ft 1 kts 182°
2026-05-05 19:01 51.46970 -0.47870 87 ft 0 kts 181°
2026-05-05 19:03 51.46968 -0.47870 87 ft 1 kts 181°
2026-05-05 19:04 51.46890 -0.47870 86 ft 17 kts 180°
2026-05-05 19:04 51.46768 -0.47883 86 ft 17 kts 217°
2026-05-05 19:04 51.46740 -0.48059 86 ft 16 kts 270°
2026-05-05 19:04 51.46740 -0.48087 86 ft 0 kts 269°
2026-05-05 19:06 51.46740 -0.48091 86 ft 3 kts 269°
2026-05-05 19:06 51.46712 -0.48198 86 ft 13 kts 200°
2026-05-05 19:06 51.46619 -0.48210 85 ft 0 kts 179°
2026-05-05 19:07 51.46616 -0.48210 85 ft 4 kts 179°
2026-05-05 19:08 51.46498 -0.48208 85 ft 10 kts 170°
2026-05-05 19:08 51.46487 -0.48109 85 ft 10 kts 108°
2026-05-05 19:08 51.46480 -0.48027 85 ft 0 kts 86°
2026-05-05 19:10 51.46481 -0.47939 85 ft 27 kts 90°
2026-05-05 19:10 51.46484 -0.47218 85 ft 99 kts 90°
2026-05-05 19:10 51.46489 -0.45771 114 ft 153 kts 88°
2026-05-05 19:11 51.46484 -0.44071 683 ft 154 kts 89°
2026-05-05 19:11 51.46442 -0.42352 1312 ft 157 kts 92°
2026-05-05 19:11 51.46369 -0.40630 1957 ft 159 kts 86°
2026-05-05 19:11 51.46792 -0.38988 2385 ft 167 kts 39°
2026-05-05 19:12 51.47813 -0.37928 2764 ft 182 kts 33°
2026-05-05 19:12 51.48863 -0.36648 3133 ft 201 kts 40°
2026-05-05 19:12 51.49948 -0.34995 3528 ft 222 kts 45°
2026-05-05 19:12 51.51029 -0.33119 3985 ft 240 kts 47°
2026-05-05 19:13 51.52135 -0.30955 4477 ft 258 kts 57°
2026-05-05 19:13 51.52846 -0.28255 5217 ft 266 kts 70°
2026-05-05 19:13 51.53388 -0.25403 5769 ft 268 kts 71°
2026-05-05 19:13 51.53942 -0.22525 5971 ft 268 kts 70°
2026-05-05 19:14 51.54670 -0.19753 5940 ft 264 kts 52°
2026-05-05 19:14 51.56046 -0.17854 5938 ft 261 kts 24°
2026-05-05 19:14 51.57744 -0.17208 5942 ft 261 kts
2026-05-05 19:14 51.59564 -0.17238 5972 ft 261 kts
2026-05-05 19:15 51.61359 -0.16690 5980 ft 260 kts 14°
2026-05-05 19:15 51.63113 -0.15981 5989 ft 261 kts 14°
2026-05-05 19:15 51.64903 -0.15216 6268 ft 269 kts 14°
2026-05-05 19:15 51.66712 -0.14445 7242 ft 270 kts 16°
2026-05-05 19:16 51.68515 -0.13643 8213 ft 270 kts 17°
2026-05-05 19:16 51.70330 -0.12804 9048 ft 275 kts 17°
2026-05-05 19:16 51.72183 -0.11918 9835 ft 280 kts 19°
2026-05-05 19:16 51.73879 -0.10364 10480 ft 289 kts 41°
2026-05-05 19:17 51.75103 -0.07670 10878 ft 309 kts 65°
2026-05-05 19:17 51.75618 -0.04199 11258 ft 328 kts 82°
2026-05-05 19:17 51.75894 -0.00479 11847 ft 337 kts 82°
2026-05-05 19:17 51.76184 0.03356 12575 ft 342 kts 82°
2026-05-05 19:18 51.76481 0.07142 13265 ft 345 kts 82°
2026-05-05 19:18 51.76790 0.11001 13922 ft 351 kts 81°
2026-05-05 19:18 51.77110 0.14927 14577 ft 355 kts 81°
2026-05-05 19:18 51.77434 0.18900 15226 ft 360 kts 81°
2026-05-05 19:19 51.77764 0.22937 15885 ft 363 kts 82°
2026-05-05 19:19 51.78091 0.26961 16525 ft 366 kts 82°
2026-05-05 19:19 51.78424 0.31069 17157 ft 370 kts 82°
2026-05-05 19:19 51.78755 0.35187 17775 ft 373 kts 82°
2026-05-05 19:20 51.79088 0.39346 18390 ft 376 kts 82°
2026-05-05 19:20 51.79419 0.43508 18992 ft 379 kts 82°
2026-05-05 19:20 51.79755 0.47752 19590 ft 381 kts 82°
2026-05-05 19:20 51.80088 0.52001 20163 ft 384 kts 82°
2026-05-05 19:21 51.80423 0.56274 20716 ft 387 kts 82°
2026-05-05 19:21 51.80758 0.60575 21245 ft 390 kts 82°
2026-05-05 19:21 51.81166 0.64948 21772 ft 393 kts 79°
2026-05-05 19:21 51.81741 0.69283 22283 ft 396 kts 76°
2026-05-05 19:22 51.82410 0.73668 22786 ft 399 kts 76°
2026-05-05 19:22 51.83082 0.77987 23265 ft 402 kts 76°
2026-05-05 19:22 51.83799 0.82418 23742 ft 405 kts 74°
2026-05-05 19:22 51.84589 0.86794 24197 ft 408 kts 73°
2026-05-05 19:23 51.85388 0.91157 24642 ft 411 kts 73°
2026-05-05 19:23 51.86199 0.95586 25091 ft 413 kts 73°
2026-05-05 19:23 51.87015 1.00064 25537 ft 416 kts 73°
2026-05-05 19:23 51.87835 1.04574 25987 ft 418 kts 74°
2026-05-05 19:24 51.88656 1.09101 26423 ft 421 kts 74°
2026-05-05 19:24 51.89478 1.13656 26843 ft 424 kts 74°
2026-05-05 19:24 51.90300 1.18231 27255 ft 427 kts 75°
2026-05-05 19:24 51.91130 1.22864 27659 ft 429 kts 75°
2026-05-05 19:25 51.91962 1.27518 28042 ft 432 kts 75°
2026-05-05 19:25 51.92793 1.32170 28433 ft 435 kts 75°
2026-05-05 19:25 51.93636 1.36906 28827 ft 438 kts 75°
2026-05-05 19:25 51.94481 1.41664 29007 ft 439 kts 75°
2026-05-05 19:26 51.96144 1.51077 29112 ft 438 kts 75°
2026-05-05 19:26 51.97819 1.60610 29013 ft 437 kts 76°
2026-05-05 19:27 51.99469 1.70122 28943 ft 437 kts 77°
2026-05-05 19:27 52.00960 1.79645 28931 ft 437 kts 78°
2026-05-05 19:28 52.02419 1.89162 28927 ft 438 kts 78°
2026-05-05 19:28 52.03890 1.98744 28942 ft 438 kts 78°
2026-05-05 19:29 52.05356 2.08308 28955 ft 438 kts 78°
2026-05-05 19:29 52.06818 2.17903 28956 ft 438 kts 78°
2026-05-05 19:30 52.08275 2.27515 28950 ft 438 kts 78°
2026-05-05 19:30 52.09713 2.37063 28938 ft 438 kts 78°
2026-05-05 19:31 52.10430 2.41851 28691 ft 435 kts 78°
2026-05-05 19:31 52.11230 2.46568 27992 ft 442 kts 73°
2026-05-05 19:31 52.12398 2.51209 27273 ft 448 kts 65°
2026-05-05 19:31 52.13882 2.55627 26645 ft 445 kts 61°
2026-05-05 19:32 52.15452 2.59958 26055 ft 441 kts 60°
2026-05-05 19:32 52.17002 2.64179 25457 ft 437 kts 60°
2026-05-05 19:32 52.18544 2.68391 24847 ft 433 kts 60°
2026-05-05 19:32 52.20081 2.72618 24217 ft 429 kts 60°
2026-05-05 19:33 52.21585 2.76774 23604 ft 425 kts 60°
2026-05-05 19:33 52.23080 2.80921 23000 ft 421 kts 60°
2026-05-05 19:33 52.24549 2.85009 22413 ft 418 kts 60°
2026-05-05 19:33 52.26011 2.89086 21784 ft 417 kts 60°
2026-05-05 19:34 52.27462 2.93138 21196 ft 414 kts 60°
2026-05-05 19:34 52.28901 2.97164 20670 ft 410 kts 60°
2026-05-05 19:34 52.30312 3.01116 20178 ft 399 kts 60°
2026-05-05 19:35 52.33007 3.08692 19258 ft 376 kts 60°
2026-05-05 19:35 52.34311 3.12369 18818 ft 368 kts 60°
2026-05-05 19:35 52.35576 3.15941 18385 ft 363 kts 60°
2026-05-05 19:35 52.36830 3.19483 17971 ft 361 kts 60°
2026-05-05 19:36 52.38070 3.22990 17556 ft 360 kts 59°
2026-05-05 19:36 52.39313 3.26512 17136 ft 359 kts 59°
2026-05-05 19:36 52.40565 3.30066 16711 ft 358 kts 59°
2026-05-05 19:36 52.41796 3.33581 16298 ft 359 kts 60°
2026-05-05 19:37 52.43027 3.37123 15885 ft 358 kts 59°
2026-05-05 19:37 52.44182 3.40645 15478 ft 355 kts 64°
2026-05-05 19:37 52.45089 3.44423 15063 ft 353 kts 72°
2026-05-05 19:37 52.45726 3.48294 14653 ft 349 kts 76°
2026-05-05 19:38 52.46281 3.52157 14244 ft 348 kts 76°
2026-05-05 19:38 52.46817 3.55982 13838 ft 346 kts 76°
2026-05-05 19:38 52.47355 3.59821 13428 ft 343 kts 76°
2026-05-05 19:38 52.47886 3.63581 13026 ft 341 kts 76°
2026-05-05 19:39 52.48423 3.67377 12618 ft 339 kts 77°
2026-05-05 19:39 52.48931 3.70963 12230 ft 336 kts 77°
2026-05-05 19:39 52.49462 3.74714 11825 ft 334 kts 77°
2026-05-05 19:39 52.49993 3.78470 11411 ft 332 kts 77°
2026-05-05 19:40 52.50507 3.82118 11010 ft 330 kts 77°
2026-05-05 19:40 52.51027 3.85820 10514 ft 332 kts 77°
2026-05-05 19:40 52.51536 3.89450 10198 ft 319 kts 77°
2026-05-05 19:40 52.52011 3.92845 10060 ft 301 kts 76°
2026-05-05 19:41 52.52319 3.96174 9917 ft 289 kts 90°
2026-05-05 19:41 52.51975 3.99356 9887 ft 288 kts 108°
2026-05-05 19:41 52.51250 4.02428 9910 ft 289 kts 111°
2026-05-05 19:41 52.50480 4.05487 9922 ft 290 kts 111°
2026-05-05 19:42 52.49709 4.08545 9921 ft 290 kts 111°
2026-05-05 19:42 52.48951 4.11588 9767 ft 292 kts 111°
2026-05-05 19:42 52.48182 4.14699 9368 ft 294 kts 111°
2026-05-05 19:42 52.47416 4.17788 9007 ft 293 kts 113°
2026-05-05 19:43 52.46450 4.20225 8857 ft 287 kts 136°
2026-05-05 19:43 52.44910 4.22059 8748 ft 287 kts 147°
2026-05-05 19:43 52.42956 4.23943 8605 ft 287 kts 149°
2026-05-05 19:43 52.41247 4.25608 8480 ft 286 kts 147°
2026-05-05 19:44 52.39560 4.27322 8343 ft 284 kts 146°
2026-05-05 19:44 52.37899 4.29065 8030 ft 283 kts 146°
2026-05-05 19:44 52.36242 4.30839 7681 ft 283 kts 145°
2026-05-05 19:44 52.34606 4.32606 7360 ft 281 kts 145°
2026-05-05 19:45 52.32982 4.34364 7007 ft 279 kts 144°
2026-05-05 19:45 52.31382 4.36101 6616 ft 275 kts 144°
2026-05-05 19:45 52.29801 4.37817 5960 ft 274 kts 144°
2026-05-05 19:45 52.28227 4.39526 5313 ft 272 kts 144°
2026-05-05 19:46 52.26670 4.41212 4758 ft 266 kts 144°
2026-05-05 19:46 52.25137 4.42872 4302 ft 257 kts 144°
2026-05-05 19:46 52.23691 4.44435 3899 ft 247 kts 144°
2026-05-05 19:46 52.22346 4.46127 3463 ft 239 kts 125°
2026-05-05 19:47 52.21801 4.48494 3110 ft 220 kts 83°
2026-05-05 19:47 52.22273 4.50729 2939 ft 199 kts 56°
2026-05-05 19:47 52.22980 4.52597 2865 ft 187 kts 55°
2026-05-05 19:47 52.23608 4.54370 2643 ft 177 kts 57°
2026-05-05 19:48 52.24101 4.56153 2365 ft 168 kts 73°
2026-05-05 19:48 52.24182 4.57960 2237 ft 150 kts 84°
2026-05-05 19:48 52.24137 4.59598 2002 ft 138 kts 85°
2026-05-05 19:48 52.24209 4.61093 1679 ft 129 kts 69°
2026-05-05 19:49 52.24526 4.62411 1421 ft 124 kts 56°
2026-05-05 19:49 52.24814 4.63236 1307 ft 125 kts 54°
2026-05-05 19:49 52.25427 4.64854 1194 ft 125 kts 52°
2026-05-05 19:49 52.25914 4.66028 1110 ft 126 kts 52°
2026-05-05 19:50 52.26350 4.67088 911 ft 126 kts 53°
2026-05-05 19:50 52.26828 4.68321 700 ft 125 kts 55°
2026-05-05 19:50 52.27293 4.69519 548 ft 124 kts 54°
2026-05-05 19:50 52.27760 4.70718 414 ft 124 kts 54°
2026-05-05 19:51 52.28222 4.71899 269 ft 124 kts 55°
2026-05-05 19:51 52.28667 4.73067 138 ft 123 kts 57°
2026-05-05 19:51 52.29106 4.74252 12 ft 121 kts 55°
2026-05-05 19:51 52.29503 4.75248 -4 ft 87 kts 57°
2026-05-05 19:52 52.29746 4.75890 -3 ft 55 kts 57°
2026-05-05 19:52 52.29932 4.76369 -3 ft 44 kts 54°
2026-05-05 19:52 52.30150 4.76642 -3 ft 28 kts 32°
2026-05-05 19:52 52.30254 4.76738 -3 ft 14 kts 27°
2026-05-05 19:53 52.30336 4.76720 -4 ft 8 kts 340°
2026-05-05 19:53 52.30387 4.76770 -4 ft 10 kts 54°
2026-05-05 19:53 52.30432 4.76875 -3 ft 10 kts 54°
2026-05-05 19:53 52.30442 4.76888 -3 ft 1 kts
2026-05-05 19:54 52.30456 4.76880 -3 ft 3 kts 322°
2026-05-05 19:54 52.30475 4.76850 -3 ft 3 kts 315°
2026-05-05 19:54 52.30494 4.76820 -3 ft 2 kts 315°
2026-05-05 19:54 52.30503 4.76804 -3 ft 0 kts 315°
2026-05-05 19:55 52.30504 4.76803 -3 ft 0 kts 315°